User: anonymous   Login
Location: Saint-Morand
(47.8012°N, 1.2794°W)
Time: 06:36:30
(UTC+00:00)
Language:

Cosmos 1271 Rocket - Orbit

View from above orbital plane
View from above orbital plane
View from above satellite
View from above satellite

Ground track
Ground track

The orbit data is extracted from the following two-line orbital elements,

1 12465U 81046B   21134.74528198  .00000885  00000-0  45517-4 0  9999
2 12465  81.2428 183.1731 0032934 226.0051 133.8462 15.14936842183514
Epoch (UTC): 14 May 2021 17:53:12
Eccentricity: 0.0032934
inclination: 81.2428°
perigee height: 498 km
apogee height: 544 km
right ascension of ascending node: 183.1731°
argument of perigee: 226.0051°
revolutions per day: 15.14936842
mean anomaly at epoch: 133.8462°
orbit number at epoch: 18351

The dashed part of the orbit path shows where the satellite is in the earth's shadow,  

DLR